Location: Pinhead Observatory
(34.4473°N, 118.1985°W)
Time: 03:48:04
(UTC-08:00)

Daily predictions for brighter satellites

Satellite Brightness Start Highest point End
(mag) Time Altitude Azimuth Time Altitude Azimuth Time Altitude Azimuth
CZ-4C R/B 4.2 03:13:00 23° ENE 03:13:00 23° ENE 03:15:27 10° NE
USA 234 3.7 03:26:34 10° NE 03:32:31 55° ESE 03:32:31 55° ESE
ATLAS 3B R/B 4.4 03:38:41 11° SSE 03:44:58 32° ESE 03:51:20 10° NE
ATLAS 5 CENTAUR R/B 4.3 03:51:18 13° N 03:51:18 13° N 03:52:03 10° N
Cosmos 1943 Rocket 3.9 03:56:39 22° N 03:56:39 22° N 03:58:39 10° N
Nadezhda 2 Rocket 4.5 03:53:14 10° N 03:59:20 76° E 04:05:29 10° S
Cosmos 676 Rocket 4.2 04:08:26 62° NNE 04:09:11 72° ENE 04:14:29 10° SSE
ADEOS II 3.2 04:06:40 10° N 04:09:35 33° N 04:09:35 33° N
Cosmos 1140 Rocket 4.5 04:08:54 10° N 04:13:56 46° ENE 04:18:57 10° SE
CZ-4B R/B 4.0 04:10:18 10° N 04:14:01 40° NNW 04:14:01 40° NNW
Tiangong 1 4.3 04:19:39 10° NE 04:19:39 10° NE 04:19:40 10° NE
ATLAS CENTAUR R/B 3.8 04:16:12 49° WNW 04:18:20 66° SW 04:37:07 10° SSE
Fengyun 1C 4.5 04:14:16 10° N 04:19:43 81° WNW 04:20:07 75° SW
Okean-O 2.7 04:20:23 10° NNE 04:24:49 72° ESE 04:25:44 54° SSE
CZ-4B R/B 4.0 04:25:17 10° NNE 04:29:23 75° ESE 04:30:07 57° SSE
Lacrosse 5 3.8 04:34:59 16° NNW 04:34:59 16° NNW 04:37:15 10° N
Okean 2 Rocket 3.4 04:31:05 10° N 04:35:28 65° E 04:39:50 10° SSE
Delta 2 Rocket 3.5 04:37:46 69° W 04:38:20 87° NNW 04:43:30 10° E
Cosmos 1782 3.5 04:34:44 10° S 04:38:35 53° E 04:42:28 10° NNE
Cosmos 1244 Rocket 4.4 04:35:30 10° NNW 04:41:38 64° W 04:47:41 10° S
Cosmos 1607 4.0 04:38:25 16° SSW 04:43:27 78° ESE 04:49:37 10° NNE
SL-08 R/B 4.4 04:45:33 10° N 04:51:54 86° W 04:58:14 10° S
Meteor 1-14 Rocket 4.2 04:46:19 10° NNW 04:52:01 64° W 04:57:34 10° S
Cosmos 1850 Rocket 4.4 04:46:43 10° N 04:52:01 66° ENE 04:57:15 10° SSE
Cosmos 1656 Rocket 4.3 04:53:03 34° WNW 04:53:30 34° WNW 04:58:39 10° N
Cosmos 1954 Rocket 4.2 04:52:01 10° NNW 04:57:08 49° WSW 05:02:13 10° S
Meteor 2-6 Rocket 4.4 04:51:49 10° S 04:57:09 69° E 05:02:31 10° NNE
GEOS 3 Rocket 3.5 04:52:21 10° SSE 04:57:24 68° WSW 05:01:51 14° NW
CZ-4C R/B 3.0 04:58:12 27° WNW 04:58:54 28° NW 05:03:54 10° N
Gblst 52 Del rocket 4.2 04:56:39 22° SW 05:00:23 86° SE 05:06:38 10° NE
Cosmos 1420 Rocket 4.4 04:59:35 33° WSW 05:01:00 39° WNW 05:05:51 10° N
Ariane Rocket 4.5 04:56:17 10° NNE 05:01:01 39° E 05:05:44 10° SSE
Meteor 1-31 Rocket 3.4 04:58:01 10° N 05:01:05 35° NW 05:01:05 35° NW
COSMO-SKYMED 1 3.1 04:58:04 10° SSE 05:02:19 60° ENE 05:06:36 10° N
Meteor 2-11 Rocket 4.4 04:57:52 10° S 05:03:59 89° E 05:10:09 10° N
S3M 4.0 04:58:11 10° SSW 05:04:24 56° W 05:10:34 10° N
Cosmos 2219 3.1 05:01:30 10° NNW 05:07:09 71° WSW 05:12:43 10° SSE
Cosmos 2227 Rocket 3.9 05:04:23 10° N 05:09:33 35° ENE 05:14:41 10° SE
Cosmos 1553 Rocket 4.2 05:04:27 10° SSW 05:10:22 47° W 05:16:25 10° N
Meteor 1-25 Rocket 4.3 05:05:03 10° NNW 05:10:48 63° W 05:16:33 10° S
NOAA 6 4.0 05:08:42 10° N 05:13:46 60° WNW 05:18:47 10° SSW
Okean 1-7 4.0 05:14:14 24° WNW 05:14:14 24° WNW 05:17:27 10° NNW
USA 238 DEB 3.8 05:08:14 10° SSW 05:15:13 81° ESE 05:22:16 10° NNE
USA 238 3.9 05:08:19 10° SSW 05:15:19 80° ESE 05:22:21 10° NNE
USA 234 3.8 05:09:49 10° NNE 05:15:44 39° NW 05:19:54 19° W
Cosmos 1331 Rocket 4.3 05:13:07 10° S 05:18:15 70° ESE 05:23:26 10° NNE
IDEFIX/ARIANE 42P 4.5 05:17:34 10° NNE 05:22:16 33° E 05:26:54 10° SSE
OE (NEXTSAT) 4.3 05:25:04 17° SW 05:27:44 90° N 05:31:18 10° NE
Thor Agena Rocket 4.0 05:23:31 10° SSW 05:28:19 37° W 05:33:06 10° NNW
Cosmos 1110 Rocket 3.9 05:28:09 10° SSW 05:33:18 72° WNW 05:38:28 10° NNE
ATLAS 3B R/B 3.1 05:28:07 10° SW 05:35:26 50° NW 05:42:33 10° NNE
CZ-4 R/B 3.4 05:31:51 10° NNE 05:35:37 34° E 05:39:18 10° SSE
Cosmos 1697 Rocket 4.1 05:30:56 10° S 05:36:13 43° ESE 05:41:32 10° NE
Meteor 1-11 Rocket 4.1 05:32:14 10° N 05:38:12 77° E 05:44:01 10° SSE
Meteor 1-28 Rocket 3.1 05:34:36 10° S 05:38:17 64° W 05:42:00 10° NNW
Cosmos 1741 Rocket 4.5 05:39:38 10° NW 05:44:29 38° W 05:49:18 10° SSW
CZ-2C R/B 3.4 05:40:15 10° NNE 05:45:08 55° E 05:50:08 10° S
Cosmos 1709 Rocket 4.0 05:39:43 10° N 05:45:51 83° W 05:52:01 10° S
Cosmos 1300 Rocket 3.6 05:42:26 10° N 05:46:52 88° W 05:51:15 10° S
COSMOS 2455 2.9 05:43:44 10° SSW 05:49:45 89° ESE 05:55:49 10° NNE
SKYMED 2 4.2 05:46:27 10° SSW 05:50:24 34° W 05:54:22 10° NNW
Cosmos 1174 3.3 05:48:29 10° SSW 05:51:26 76° ESE 05:54:43 10° NNE
Okean 3 3.5 05:48:49 10° S 05:53:06 90° NNW 05:57:26 10° N
Cosmos 1302 Rocket 4.1 05:48:45 10° SSW 05:54:02 86° ESE 05:59:21 10° NNE
Tiangong 1 3.2 05:52:06 10° NW 05:54:07 17° N 05:56:09 10° NE
Cosmos 1536 3.2 05:52:47 10° N 05:56:48 71° E 06:00:48 10° SSE
Cosmos 2315 Rocket 4.2 05:54:32 10° SSW 06:00:45 54° W 06:06:58 10° N
